Radiation Dose at Monitoring Post of Fukushima Daini Nuclear Power Station
Date,Time,MP-1(microSv/h),MP-2(microSv/h),MP-3(microSv/h),MP-4(microSv/h),MP-5(microSv/h),MP-6(microSv/h),MP-7(microSv/h),Wind Direction,Wind Velocity(m/s),Rain
2023/09/26,00:00,0.148,0.132,0.217,0.205,0.208,0.118,0.076,north,2.4,Yes
2023/09/26,00:10,0.148,0.132,0.216,0.204,0.210,0.119,0.076,northwest,1.7,Yes
2023/09/26,00:20,0.147,0.132,0.217,0.204,0.207,0.118,0.076,north-northwest,1.4,Yes
2023/09/26,00:30,0.148,0.131,0.217,0.204,0.209,0.119,0.076,northwest,1.1,Yes
2023/09/26,00:40,0.147,0.132,0.217,0.203,0.209,0.118,0.076,north,1.4,Yes
2023/09/26,00:50,0.148,0.132,0.217,0.206,0.207,0.119,0.076,northwest,2.8,Yes
2023/09/26,01:00,0.149,0.132,0.215,0.204,0.211,0.120,0.076,north-northeast,2.6,Yes
2023/09/26,01:10,0.146,0.131,0.217,0.204,0.209,0.119,0.077,north-northwest,2.1,Yes
2023/09/26,01:20,0.148,0.132,0.215,0.206,0.209,0.119,0.076,north-northeast,1.7,Yes
2023/09/26,01:30,0.147,0.133,0.217,0.204,0.210,0.119,0.076,north,1.1,Yes
2023/09/26,01:40,0.147,0.130,0.215,0.205,0.208,0.120,0.077,north,1.3,No
2023/09/26,01:50,0.148,0.132,0.215,0.202,0.210,0.120,0.076,-,CALM,No
2023/09/26,02:00,0.146,0.132,0.216,0.205,0.208,0.118,0.076,north,0.8,No
2023/09/26,02:10,0.148,0.132,0.216,0.205,0.208,0.120,0.076,north,0.7,No
2023/09/26,02:20,0.147,0.132,0.217,0.203,0.210,0.118,0.076,north,0.8,Yes
2023/09/26,02:30,0.148,0.130,0.215,0.205,0.206,0.118,0.076,north-northeast,0.6,Yes
2023/09/26,02:40,0.147,0.132,0.217,0.202,0.210,0.119,0.076,north-northeast,1.0,No
2023/09/26,02:50,0.145,0.132,0.215,0.204,0.208,0.119,0.076,northeast,0.7,No
2023/09/26,03:00,0.148,0.131,0.216,0.203,0.208,0.119,0.075,east-northeast,1.0,No
2023/09/26,03:10,0.147,0.131,0.216,0.202,0.210,0.119,0.076,east-northeast,1.2,No
2023/09/26,03:20,0.147,0.131,0.215,0.204,0.208,0.118,0.075,north-northwest,0.9,Yes
2023/09/26,03:30,0.147,0.132,0.216,0.201,0.210,0.120,0.075,northwest,1.9,Yes
2023/09/26,03:40,0.147,0.131,0.215,0.204,0.208,0.119,0.076,northwest,1.7,No
2023/09/26,03:50,0.146,0.132,0.217,0.202,0.208,0.119,0.076,northwest,1.4,No
2023/09/26,04:00,0.145,0.132,0.214,0.203,0.209,0.118,0.077,northwest,1.0,No
2023/09/26,04:10,0.148,0.132,0.216,0.204,0.207,0.118,0.075,-,CALM,No
2023/09/26,04:20,0.146,0.131,0.215,0.202,0.210,0.119,0.076,northwest,1.1,No
2023/09/26,04:30,0.146,0.132,0.215,0.206,0.208,0.119,0.076,west-northwest,2.2,No
2023/09/26,04:40,0.147,0.132,0.216,0.202,0.208,0.118,0.076,west-northwest,1.8,No
2023/09/26,04:50,0.146,0.131,0.215,0.203,0.209,0.119,0.076,north-northwest,1.1,No
2023/09/26,05:00,0.147,0.132,0.217,0.203,0.206,0.118,0.076,north-northwest,0.7,No
2023/09/26,05:10,0.147,0.132,0.215,0.203,0.210,0.118,0.076,-,CALM,No
2023/09/26,05:20,0.147,0.132,0.217,0.203,0.206,0.118,0.075,north,1.1,No
2023/09/26,05:30,0.147,0.132,0.214,0.204,0.209,0.118,0.075,southwest,1.0,No
2023/09/26,05:40,0.146,0.132,0.217,0.204,0.208,0.118,0.076,west-northwest,0.9,No
2023/09/26,05:50,0.148,0.131,0.215,0.203,0.208,0.117,0.076,-,CALM,No
2023/09/26,06:00,0.147,0.130,0.217,0.204,0.211,0.118,0.075,north-northeast,0.6,No
2023/09/26,06:10,0.148,0.132,0.216,0.203,0.207,0.119,0.075,-,CALM,No
2023/09/26,06:20,0.147,0.131,0.215,0.205,0.209,0.119,0.076,-,CALM,No
2023/09/26,06:30,0.146,0.132,0.216,0.202,0.209,0.118,0.075,-,CALM,No
2023/09/26,06:40,0.147,0.132,0.214,0.202,0.208,0.118,0.076,-,CALM,No
2023/09/26,06:50,0.146,0.132,0.217,0.203,0.210,0.119,0.075,northwest,0.6,No
2023/09/26,07:00,0.148,0.131,0.214,0.202,0.207,0.118,0.075,-,CALM,No
2023/09/26,07:10,0.146,0.132,0.215,0.204,0.209,0.118,0.076,-,CALM,No
2023/09/26,07:20,0.145,0.131,0.215,0.203,0.208,0.119,0.075,-,CALM,No
2023/09/26,07:30,0.148,0.130,0.214,0.201,0.207,0.118,0.076,-,CALM,No
2023/09/26,07:40,0.146,0.132,0.217,0.205,0.209,0.118,0.075,-,CALM,No
2023/09/26,07:50,0.146,0.132,0.216,0.203,0.210,0.119,0.076,-,CALM,No
2023/09/26,08:00,0.147,0.132,0.214,0.202,0.207,0.118,0.075,-,CALM,No
2023/09/26,08:10,0.146,0.132,0.216,0.204,0.208,0.119,0.077,-,CALM,No
2023/09/26,08:20,0.146,0.131,0.215,0.202,0.210,0.119,0.076,-,CALM,No
2023/09/26,08:30,0.147,0.132,0.215,0.202,0.207,0.119,0.075,-,CALM,No
2023/09/26,08:40,0.146,0.132,0.216,0.205,0.207,0.119,0.076,-,CALM,Yes
2023/09/26,08:50,0.146,0.131,0.215,0.202,0.209,0.118,0.076,-,CALM,Yes
2023/09/26,09:00,0.148,0.131,0.216,0.202,0.208,0.118,0.076,-,CALM,No
2023/09/26,09:10,0.147,0.132,0.216,0.205,0.206,0.117,0.076,-,CALM,No
2023/09/26,09:20,0.146,0.130,0.214,0.202,0.208,0.119,0.076,southeast,1.8,No
2023/09/26,09:30,0.146,0.131,0.213,0.201,0.210,0.118,0.075,southeast,2.9,Yes
2023/09/26,09:40,0.148,0.131,0.217,0.204,0.209,0.119,0.077,southeast,2.7,Yes
2023/09/26,09:50,0.147,0.131,0.216,0.204,0.207,0.119,0.077,southwest,1.0,Yes
2023/09/26,10:00,0.146,0.131,0.214,0.203,0.210,0.119,0.076,-,CALM,Yes
2023/09/26,10:10,0.148,0.131,0.214,0.202,0.210,0.119,0.077,southwest,0.9,No
2023/09/26,10:20,0.147,0.133,0.217,0.202,0.207,0.118,0.076,south-southwest,1.6,No
2023/09/26,10:30,0.147,0.132,0.216,0.206,0.207,0.119,0.076,southwest,1.0,No
2023/09/26,10:40,0.147,0.132,0.216,0.203,0.207,0.119,0.077,east-southeast,1.1,No
2023/09/26,10:50,0.145,0.131,0.213,0.203,0.206,0.120,0.076,east-southeast,1.7,No
2023/09/26,11:00,0.146,0.130,0.214,0.202,0.210,0.119,0.076,southeast,2.4,No
2023/09/26,11:10,0.145,0.131,0.214,0.201,0.211,0.118,0.076,southeast,2.5,No
2023/09/26,11:20,0.145,0.131,0.215,0.201,0.210,0.118,0.075,southeast,2.3,No
2023/09/26,11:30,0.146,0.130,0.214,0.203,0.208,0.119,0.075,southeast,2.4,No
2023/09/26,11:40,0.146,0.131,0.215,0.202,0.208,0.119,0.075,southeast,3.2,No
2023/09/26,11:50,0.146,0.131,0.215,0.202,0.208,0.119,0.076,east-southeast,3.3,No
2023/09/26,12:00,0.146,0.131,0.215,0.202,0.209,0.118,0.076,east-southeast,3.4,No
2023/09/26,12:10,0.147,0.132,0.216,0.202,0.209,0.119,0.076,east-southeast,3.4,No
2023/09/26,12:20,0.146,0.132,0.215,0.202,0.208,0.120,0.075,east-southeast,2.9,No
2023/09/26,12:30,0.147,0.131,0.216,0.203,0.208,0.120,0.076,east-southeast,3.8,Yes
2023/09/26,12:40,0.147,0.133,0.215,0.203,0.209,0.120,0.075,east-southeast,4.3,Yes
2023/09/26,12:50,0.146,0.132,0.215,0.203,0.208,0.118,0.076,southeast,4.1,No
2023/09/26,13:00,0.147,0.132,0.214,0.201,0.207,0.119,0.076,southeast,4.6,No
2023/09/26,13:10,0.145,0.131,0.217,0.202,0.208,0.119,0.076,southeast,4.7,No
2023/09/26,13:20,0.147,0.130,0.219,0.203,0.208,0.120,0.075,southeast,3.8,No
2023/09/26,13:30,0.145,0.131,0.216,0.202,0.208,0.119,0.075,southeast,4.9,No
2023/09/26,13:40,0.145,0.132,0.215,0.205,0.209,0.119,0.075,south-southeast,3.9,No
2023/09/26,13:50,0.146,0.132,0.215,0.205,0.212,0.119,0.076,south-southeast,3.8,No
2023/09/26,14:00,0.147,0.132,0.216,0.203,0.210,0.119,0.076,south-southeast,3.7,No
2023/09/26,14:10,0.148,0.132,0.217,0.202,0.208,0.119,0.075,south-southeast,3.3,No
2023/09/26,14:20,0.147,0.131,0.215,0.203,0.207,0.118,0.075,south-southeast,3.3,No
2023/09/26,14:30,0.146,0.132,0.215,0.206,0.211,0.118,0.075,south-southeast,3.2,Yes
2023/09/26,14:40,0.145,0.131,0.214,0.204,0.209,0.118,0.076,south-southeast,2.9,No
2023/09/26,14:50,0.147,0.133,0.217,0.203,0.208,0.118,0.075,south-southeast,3.1,No
2023/09/26,15:00,0.149,0.132,0.218,0.202,0.208,0.119,0.075,south-southeast,3.7,No
2023/09/26,15:10,0.148,0.131,0.216,0.203,0.206,0.119,0.074,south-southeast,3.3,No
2023/09/26,15:20,0.146,0.129,0.213,0.206,0.207,0.118,0.075,south,3.7,No
2023/09/26,15:30,0.145,0.133,0.213,0.204,0.211,0.118,0.075,south-southeast,3.3,No
2023/09/26,15:40,0.145,0.132,0.217,0.203,0.208,0.119,0.077,south-southeast,2.9,No
2023/09/26,15:50,0.148,0.132,0.217,0.201,0.207,0.119,0.075,south,3.3,No
2023/09/26,16:00,0.148,0.131,0.215,0.203,0.207,0.119,0.075,south-southeast,3.3,No
2023/09/26,16:10,0.146,0.131,0.214,0.204,0.211,0.119,0.075,south-southeast,3.4,No
2023/09/26,16:20,0.146,0.132,0.216,0.203,0.211,0.118,0.076,south-southeast,4.3,No
2023/09/26,16:30,0.146,0.132,0.216,0.201,0.208,0.119,0.075,south-southeast,4.3,No
2023/09/26,16:40,0.148,0.131,0.216,0.204,0.208,0.119,0.075,south,3.4,No
2023/09/26,16:50,0.147,0.132,0.215,0.206,0.211,0.118,0.074,south,3.4,No
2023/09/26,17:00,0.146,0.133,0.217,0.203,0.210,0.119,0.076,south,3.7,No
2023/09/26,17:10,0.147,0.132,0.217,0.203,0.209,0.119,0.075,south,4.6,No
2023/09/26,17:20,0.149,0.131,0.215,0.206,0.209,0.119,0.075,south,3.4,No
2023/09/26,17:30,0.147,0.132,0.217,0.205,0.211,0.118,0.076,south,3.3,No
2023/09/26,17:40,0.147,0.132,0.216,0.203,0.210,0.120,0.076,south,2.4,No
2023/09/26,17:50,0.147,0.131,0.215,0.205,0.207,0.119,0.075,south,2.2,No
2023/09/26,18:00,0.147,0.132,0.217,0.205,0.211,0.119,0.074,south,1.9,No
2023/09/26,18:10,0.147,0.131,0.216,0.204,0.209,0.119,0.077,south,2.0,No
2023/09/26,18:20,0.147,0.131,0.215,0.206,0.207,0.119,0.075,south,1.2,No
2023/09/26,18:30,0.146,0.132,0.216,0.204,0.210,0.119,0.075,south,2.4,No
2023/09/26,18:40,0.148,0.132,0.216,0.204,0.210,0.120,0.075,south,2.7,No
2023/09/26,18:50,0.147,0.133,0.217,0.206,0.208,0.120,0.076,south,3.1,No
2023/09/26,19:00,0.146,0.131,0.218,0.206,0.210,0.119,0.075,south,2.6,No
2023/09/26,19:10,0.147,0.132,0.217,0.204,0.211,0.120,0.076,south-southwest,2.2,No
2023/09/26,19:20,0.148,0.133,0.219,0.205,0.208,0.119,0.076,south-southwest,2.2,No
2023/09/26,19:30,0.148,0.132,0.217,0.203,0.211,0.118,0.077,southwest,1.9,No
2023/09/26,19:40,0.148,0.133,0.217,0.206,0.210,0.120,0.076,south-southwest,1.7,No
2023/09/26,19:50,0.148,0.133,0.218,0.206,0.210,0.119,0.076,south,1.9,No
2023/09/26,20:00,0.147,0.132,0.217,0.203,0.211,0.119,0.077,south,3.1,No
2023/09/26,20:10,0.149,0.133,0.218,0.206,0.210,0.119,0.076,south,2.3,No
2023/09/26,20:20,0.147,0.133,0.217,0.205,0.211,0.119,0.077,south,1.8,No
2023/09/26,20:30,0.148,0.132,0.218,0.205,0.212,0.121,0.077,south,2.1,No
2023/09/26,20:40,0.148,0.132,0.218,0.206,0.209,0.120,0.077,south,2.0,No
2023/09/26,20:50,0.147,0.132,0.217,0.204,0.212,0.119,0.077,south,2.1,No
2023/09/26,21:00,0.149,0.133,0.219,0.206,0.211,0.120,0.076,south-southwest,2.0,No
2023/09/26,21:10,0.147,0.131,0.217,0.205,0.209,0.119,0.077,south-southwest,2.5,No
2023/09/26,21:20,0.148,0.132,0.217,0.205,0.211,0.120,0.077,south,2.7,No
2023/09/26,21:30,0.148,0.132,0.218,0.207,0.209,0.119,0.077,south,3.2,No
2023/09/26,21:40,0.148,0.133,0.216,0.205,0.209,0.120,0.076,south,2.9,No
2023/09/26,21:50,0.148,0.133,0.219,0.205,0.212,0.119,0.077,south-southwest,2.1,No
2023/09/26,22:00,0.148,0.132,0.217,0.205,0.209,0.120,0.076,south-southwest,1.4,No
2023/09/26,22:10,0.146,0.133,0.218,0.205,0.209,0.119,0.076,south-southwest,1.6,No
2023/09/26,22:20,0.149,0.132,0.218,0.206,0.211,0.121,0.076,south,1.8,No
2023/09/26,22:30,0.148,0.133,0.217,0.206,0.210,0.120,0.076,south,2.0,No
2023/09/26,22:40,0.147,0.133,0.218,0.203,0.210,0.119,0.077,south,2.0,No
2023/09/26,22:50,0.148,0.132,0.216,0.206,0.210,0.120,0.077,south,1.5,No
2023/09/26,23:00,0.148,0.132,0.218,0.204,0.210,0.120,0.076,south,1.3,Yes
2023/09/26,23:10,0.148,0.134,0.217,0.205,0.208,0.119,0.077,south,1.6,No
2023/09/26,23:20,0.149,0.131,0.216,0.206,0.212,0.120,0.076,south,1.0,No
2023/09/26,23:30,0.146,0.133,0.218,0.204,0.209,0.120,0.077,south,1.3,No
2023/09/26,23:40,0.149,0.133,0.216,0.205,0.210,0.120,0.077,south,1.4,No
2023/09/26,23:50,0.147,0.133,0.218,0.205,0.211,0.121,0.076,south-southwest,1.4,No
